GFSGL_con_sbcape_336.txt.gz
CAPE
3190 3152 3433 3455 3668 3947 3614 3947 4553 4103 4389 3278 3503 3246 3391 3147 3447 3184 2695 2772 2844 2406 2146 2234 1960 1812 596 311 0 0 0 3 0 461 339 700 69 0 0 0 0 0 0
2725 3305 3432 3561 3526 3614 3557 3646 3718 4006 4709 4357 3875 3867 3569 3059 3154 2909 2752 1994 2712 2762 2233 2190 1775 968 883 472 18 7 31 214 0 402 372 428 135 0 0 0 0 0 0
2924 3005 2924 3199 3304 3485 3646 3627 3636 3803 4270 4162 3950 3463 3553 3285 3204 3218 2716 2670 2731 2634 2387 2100 1677 1372 946 176 5 29 0 0 0 0 258 112 61 0 0 0 0 3 0
2713 2872 3187 3681 3433 3113 3474 3704 3826 4079 3833 4181 3969 3940 3905 3593 3221 2975 2876 2833 2670 2388 2277 1872 1639 1312 870 460 125 0 0 37 0 0 0 16 0 0 0 0 0 0 0
4013 3856 4315 4661 4838 4915 4466 4650 3801 4232 4148 4105 4158 4119 3976 3938 3694 3501 3083 2932 2766 2480 2439 2130 1683 1337 810 474 0 3 0 1 0 0 0 1 3 0 0 0 0 0 0
540 260 1599 2858 4191 5074 4672 4559 4291 4035 3835 4253 4338 4308 4193 3807 3062 2482 3076 3038 2940 2604 2375 2319 1853 1152 497 20 0 0 0 0 0 0 0 0 3 3 0 0 0 9 0
173 45 9 402 1662 1683 1179 1785 3880 3898 4167 4161 4153 4293 4433 4281 3351 1654 1603 2856 2917 2750 2549 2428 1991 873 15 0 0 0 0 0 0 0 0 23 37 0 0 0 7 6 4
1060 632 1038 413 625 799 217 0 34 1441 3216 4286 4228 4076 3990 4222 3882 2748 836 2229 2873 2869 2706 2540 1935 718 16 0 0 0 0 0 0 0 0 0 6 120 4 7 15 2 0
1397 1131 789 791 1335 1635 990 120 65 2342 3860 4416 4425 4214 4353 4025 3789 2589 1073 1895 2208 2553 2653 2467 1690 636 10 0 0 0 0 0 0 0 0 0 0 1 0 0 0 0 0
4131 4090 4097 3576 3008 2869 2563 3051 4132 4766 4237 4220 4006 4044 4275 4338 4095 2630 596 2629 2118 1906 1867 2220 689 208 0 0 0 0 0 0 0 0 0 0 0 0 0 0 0 0 0
3338 3787 3931 3881 3511 3396 2815 3358 3328 4133 4093 4632 4874 4271 3917 4318 4237 2139 193 2414 2669 1441 927 505 92 0 0 0 0 0 0 0 0 0 0 0 0 0 0 0 0 0 0
3447 3589 4002 4005 3061 2669 3188 3034 3239 3842 3484 3307 3378 4491 4517 4157 3354 1248 13 42 2030 1017 657 317 81 0 0 0 0 0 0 0 0 0 0 0 0 0 0 0 0 0 48
3311 3386 3629 4164 3841 3698 3944 3799 3005 2850 2620 2418 1500 1700 2838 3644 3017 1217 26 0 43 855 451 62 0 0 0 0 0 0 0 0 0 0 0 0 0 0 0 0 0 34 49
2358 2462 2687 3001 3108 3356 2812 2808 2551 1989 1670 1833 1881 1584 1954 2170 1808 217 0 0 1 6 62 0 0 0 0 0 0 0 0 0 0 0 0 0 0 0 0 0 0 0 31
1774 1624 1588 1244 1517 1499 2122 1170 1324 1649 1194 1283 1377 1632 1425 1916 2364 696 271 24 33 0 0 0 0 0 1 1 0 0 0 0 0 0 0 25 19 0 27 2 0 0 20
1215 943 359 84 42 261 216 275 0 115 223 88 163 837 1139 772 327 337 469 107 1 0 0 0 0 0 0 1 0 0 0 0 0 0 16 16 22 56 17 26 7 10 15
1664 1303 416 47 91 115 10 0 0 0 0 2 85 320 421 1142 0 0 0 0 0 1 1 0 0 0 1 0 0 0 0 0 0 0 0 0 0 56 62 50 9 41 9
1442 320 274 111 23 21 199 180 33 24 97 367 375 0 1 0 1 1 2 1 0 0 1 1 0 0 0 2 0 0 0 0 0 0 0 9 18 20 20 12 12 0 3
937 499 216 148 191 41 45 0 0 0 0 0 92 0 1 2 1 1 1 0 0 0 1 1 1 0 0 0 0 0 0 0 0 0 0 0 0 27 21 0 0 0 10
347 116 30 29 0 16 0 0 0 3 6 70 274 235 1 0 0 2 1 0 1 1 1 0 0 0 0 0 0 0 0 0 0 0 0 0 0 0 0 0 0 0 0
57 177 37 21 0 0 0 0 0 0 0 0 490 314 10 56 887 241 1 1 1 1 1 1 1 0 0 0 0 0 0 0 0 0 0 0 0 0 0 0 0 0 19
65 156 220 113 57 80 58 19 2 4 1 0 29 392 70 344 282 899 265 3 2 2 1 1 1 1 0 0 0 0 0 0 0 0 0 0 0 0 0 0 0 0 20
250 317 240 200 135 71 79 46 57 53 5 0 0 77 4 61 148 832 645 0 2 5 5 2 2 2 0 0 0 0 0 0 0 0 0 0 0 0 0 0 0 24 59
434 422 350 270 194 132 106 171 193 36 54 107 51 22 24 160 189 587 934 465 0 1 4 4 3 3 2 0 0 0 0 0 0 0 0 0 0 0 0 20 31 60 61
24 50 89 143 116 67 82 186 189 183 156 221 207 202 150 509 857 395 890 861 382 63 2 3 4 3 3 1 0 0 0 0 0 0 0 0 0 0 4 22 27 31 93
44 98 91 83 80 104 162 284 226 224 164 194 183 324 126 551 602 908 910 784 281 0 1 4 2 3 4 0 0 0 0 2 0 0 0 0 0 5 25 14 23 21 88

GFSGL_con_sbcape_339.txt.gz
CAPE
2372 2022 2122 2877 3047 2765 2876 3038 2961 1911 1326 1825 1756 1773 1871 2014 1727 2016 1519 1487 1505 1495 1342 936 982 465 255 0 0 0 0 0 0 0 0 0 0 0 0 0 0 0 0
2364 2587 2575 2685 2912 3097 2735 2522 2950 2496 1727 1255 1752 1811 2148 1780 1859 1806 1605 1518 1543 1367 1188 995 878 539 317 33 0 0 0 0 0 46 0 0 0 0 0 0 0 0 0
2609 2521 2722 2738 2784 2681 2948 2623 2751 3008 2760 1920 2164 2104 2341 1947 1851 1725 1618 1530 1489 1423 1301 923 843 502 365 81 0 0 0 0 0 0 0 0 0 0 0 0 0 0 0
2485 2381 2400 2734 2715 2671 2819 2859 2635 2801 2953 2878 2627 2280 2384 2303 2143 2164 1914 1712 1571 1657 1600 1338 944 568 517 121 0 0 0 0 0 0 0 0 0 0 0 0 0 0 0
2311 2564 2562 1598 1783 2649 2406 2934 2544 3102 2797 2889 3081 2835 2648 2793 2469 2300 2189 1986 1851 1739 1551 1488 1139 822 543 218 6 0 0 0 0 0 0 0 0 0 0 0 0 0 0
1278 795 519 861 445 90 2183 3246 3021 2831 3240 2966 3295 3105 3037 3158 3162 2440 2294 2162 2113 2007 1838 1504 1379 1120 817 419 21 0 0 0 0 0 0 0 0 0 0 0 0 0 0
293 359 488 481 304 33 208 317 848 1280 1636 1887 2572 3090 3140 3206 2958 2329 1932 2605 2351 2217 2022 1718 1507 1296 837 376 49 0 0 0 0 0 0 0 0 0 0 0 0 0 0
168 38 31 8 5 174 20 35 72 388 431 267 401 142 120 2275 3329 2309 1089 1800 2357 2374 2166 1903 1653 1538 699 201 12 0 0 0 0 0 0 0 0 0 0 0 0 0 0
733 285 292 187 78 52 109 0 0 10 92 103 190 2 107 1604 3073 2152 1246 908 1144 1967 2143 2011 1822 1630 295 6 0 0 0 0 0 0 0 0 0 0 0 0 0 0 0
630 416 268 144 143 728 564 9 3 76 490 1165 1805 2187 2457 3089 3269 3027 1109 1921 1969 1766 1657 1971 1531 1729 43 0 0 0 0 0 0 0 0 0 0 0 0 0 0 0 0
2883 2844 1330 855 1135 1653 1756 1817 1921 2295 2869 2888 3215 3466 3420 3232 3240 3263 1419 1577 2297 2164 1676 1531 1633 554 0 0 0 0 0 0 0 0 0 0 0 0 0 0 0 0 0
65 740 2563 2727 2376 1854 1923 1560 1594 1550 1812 1342 1595 1360 2185 3611 3407 2108 1557 265 1573 1775 1974 1139 485 0 0 0 0 0 0 0 0 0 0 0 0 0 0 0 0 0 0
68 82 0 1473 2735 1928 2177 1958 1526 1440 1214 985 1088 616 788 1889 1885 2032 1752 473 1 0 1188 905 353 0 0 1 0 0 0 0 0 0 0 0 0 0 0 0 0 1 0
0 0 0 184 2535 2950 2783 2402 2432 2119 1490 1243 1263 787 664 870 1278 1194 445 14 1 1 67 18 1 0 0 0 0 0 0 0 0 0 0 0 0 0 0 0 0 72 17
10 61 242 1100 1475 1203 1527 1827 1859 1821 1491 1162 812 769 739 849 1070 1556 834 278 68 0 1 1 1 1 1 1 1 0 0 0 0 0 0 0 0 0 0 0 0 38 55
20 534 827 685 431 214 269 242 365 617 269 0 0 82 644 657 986 776 898 674 28 1 1 1 0 1 0 0 0 0 0 0 0 0 0 0 0 0 0 0 0 0 15
830 737 402 143 31 6 0 0 0 0 0 0 0 0 0 444 166 212 153 11 2 1 0 0 0 0 0 0 0 0 0 0 0 0 0 0 0 0 0 0 0 0 18
871 568 560 249 76 0 0 0 4 2 0 0 0 0 0 1 1 1 2 1 0 1 0 0 0 0 0 0 0 0 0 0 0 0 0 0 0 0 0 0 0 1 24
0 42 197 66 8 0 0 0 0 0 0 0 0 0 1 1 0 1 1 0 0 0 0 1 0 0 0 0 0 0 0 0 0 0 0 0 0 0 0 0 2 0 0
0 0 0 23 135 5 0 0 0 0 0 0 0 0 0 0 1 1 0 0 1 0 0 0 0 0 0 0 0 0 0 0 0 0 0 0 0 0 0 0 0 0 0
0 13 29 34 2 0 0 0 0 0 0 0 0 0 59 0 13 0 0 0 0 1 1 1 1 1 0 0 0 0 0 0 0 0 0 0 0 0 0 0 0 0 0
11 17 26 56 75 50 61 44 2 0 0 0 0 0 7 1 116 207 40 0 0 1 1 1 1 1 1 0 0 0 0 0 0 0 0 0 0 0 0 0 0 0 0
0 0 17 56 97 106 77 58 54 6 1 0 0 0 0 2 189 155 148 40 0 0 1 1 1 1 2 0 0 0 0 0 0 0 0 0 0 0 0 0 0 0 0
0 0 0 22 68 106 89 61 50 78 76 27 13 24 15 9 47 122 173 243 12 0 1 1 1 1 1 2 0 0 0 0 0 0 0 0 0 0 0 0 0 0 0
0 0 0 0 8 73 85 51 51 49 79 142 77 41 66 78 37 126 147 208 75 0 0 0 0 1 1 1 1 0 0 0 0 0 0 0 0 0 0 0 0 0 0
2 3 1 0 12 15 14 27 44 70 85 72 103 57 63 97 64 74 33 60 149 73 61 14 0 0 1 1 1 0 0 0 0 0 0 0 0 0 0 0 0 0 0

GFSGL_con_sbcape_342.txt.gz
CAPE
1638 1495 1445 1656 1760 1609 1688 1549 1269 915 638 795 590 1104 1011 984 689 1142 1219 1002 1016 866 994 986 818 370 151 0 0 0 0 0 0 0 0 0 0 0 0 0 0 0 0
1459 1597 2110 2255 2276 2179 2111 2042 1916 1376 988 675 831 1259 1285 1238 1164 959 1405 1407 892 879 907 728 605 387 143 0 0 0 0 0 0 0 0 0 0 0 0 0 0 0 0
1672 1597 1430 1760 2537 2540 2400 2095 2141 2077 1391 987 993 1234 1276 1294 1335 1230 1220 1255 1106 1055 892 765 678 398 218 48 0 0 0 0 0 0 0 0 0 0 0 0 0 0 0
1772 1971 1980 1802 2090 2415 2627 2575 2190 1971 2090 1104 1014 1241 1191 1439 1296 1271 1244 1162 1017 933 936 805 574 355 236 104 42 0 0 0 0 0 0 0 0 0 0 0 0 0 0
2105 2029 2150 2211 2228 2297 2269 2466 2432 1938 2157 1985 1296 1292 1290 1549 1542 1314 1286 1224 1138 1058 1029 1025 744 520 262 131 69 2 0 0 0 0 0 0 0 0 0 0 0 0 0
2197 2133 1451 1239 1367 1053 1626 2098 2306 1924 2130 2181 2133 1759 1618 1801 1938 1684 1610 1653 1473 1273 1189 1098 1274 864 415 178 86 5 0 0 0 0 0 0 3 0 0 0 0 0 0
1673 1290 895 906 724 408 853 1984 2580 2252 2284 2130 2212 2323 1712 1075 44 0 7 562 1576 1651 1531 1490 1176 1301 737 405 83 26 0 0 0 0 0 0 0 0 0 0 0 0 0
189 106 118 64 36 1 24 273 696 942 1299 900 619 99 98 51 14 0 0 0 0 255 1435 1699 1666 1340 953 697 307 77 3 0 0 0 0 0 0 0 0 0 0 0 0
41 23 18 22 0 0 45 132 50 120 268 90 34 0 0 0 0 5 0 0 0 245 0 18 1809 1403 1114 239 417 199 13 0 0 0 0 0 0 0 0 0 0 0 0
246 109 62 38 3 0 0 0 0 0 0 15 109 2 0 0 0 0 76 0 75 720 60 112 1485 1735 1195 23 409 166 17 0 0 0 0 0 0 0 0 0 0 0 0
405 723 353 2 9 0 49 74 1 0 20 379 602 948 306 489 362 234 40 24 851 1123 976 1090 1434 845 368 30 16 101 19 1 0 0 0 0 0 0 0 0 0 0 0
46 347 814 1464 1315 856 986 1114 1191 1139 1553 1553 1194 901 835 951 2093 2318 2058 521 1054 1578 1893 1731 1275 1153 101 1 0 136 0 0 0 0 0 0 0 0 0 0 0 0 0
190 395 390 307 839 1298 1205 1495 1163 799 617 450 375 404 399 566 1946 2200 2173 1104 113 11 213 774 1046 685 8 1 0 0 0 0 0 0 0 0 0 0 0 0 0 0 0
143 205 132 0 0 330 1581 1338 1473 1138 899 766 643 627 545 298 452 717 577 96 1 1 1 2 16 1 0 0 0 0 0 0 0 0 0 0 0 0 0 0 0 0 0
0 0 0 0 0 0 69 1175 1778 1712 1589 1255 868 802 739 455 329 503 670 474 28 1 6 1 1 1 1 1 1 1 1 0 1 0 0 0 0 0 0 0 0 0 0
11 16 5 26 110 33 52 525 565 1095 1182 1172 1026 416 190 342 357 107 433 723 48 1 1 0 1 1 0 0 1 1 1 1 0 0 0 0 0 0 0 0 0 0 0
1 64 143 38 135 430 495 142 91 0 0 0 0 0 0 0 0 1 3 1 2 1 146 1 0 0 0 1 0 0 0 0 0 0 0 0 0 0 0 0 0 0 0
0 0 0 0 1 15 0 0 0 0 0 0 0 0 0 0 1 2 2 1 1 1 1 3 1 0 1 0 0 0 0 0 0 0 0 0 0 0 0 0 0 0 0
0 0 0 0 0 0 0 0 0 0 0 0 0 0 0 1 0 1 1 4 0 0 0 12 0 0 0 0 0 0 0 0 0 0 0 0 0 0 0 0 0 0 0
0 0 0 0 0 0 1 0 1 0 0 0 0 0 0 0 0 0 0 0 0 4 11 3 17 3 0 0 0 0 0 0 0 0 0 0 0 0 0 0 0 0 0
0 0 11 0 19 6 0 0 0 0 0 0 0 0 0 0 0 0 0 0 0 1 0 1 3 24 16 0 0 0 0 0 0 0 0 0 0 0 0 0 0 0 0
0 3 6 4 10 8 0 1 0 0 0 0 1 0 0 0 0 11 7 0 0 0 0 7 0 2 5 2 0 0 0 0 0 0 0 0 0 0 0 0 0 0 0
0 0 0 0 1 2 9 1 0 1 1 1 2 0 0 0 0 0 18 77 6 0 0 1 1 1 1 3 1 0 0 0 0 0 0 0 0 0 0 0 0 0 0
2 1 1 0 0 0 0 0 0 0 2 5 5 14 5 0 0 11 9 20 67 14 0 1 1 1 1 2 1 0 0 0 0 0 0 0 0 0 0 0 0 0 0
10 3 1 0 0 0 0 0 1 1 8 16 43 25 13 14 33 19 30 22 8 65 0 1 1 1 1 0 0 1 0 0 0 0 0 0 0 0 0 0 0 0 0
4 3 33 6 0 0 0 0 0 0 2 18 9 3 3 13 21 5 0 0 0 0 0 0 1 0 0 0 0 0 0 0 0 0 0 0 0 0 0 0 0 0 0

GFSGL_con_sbcape_345.txt.gz
CAPE
453 474 580 784 988 1074 776 553 262 249 323 424 267 526 742 781 440 689 783 736 760 622 738 811 744 446 315 0 0 0 0 0 0 0 0 0 0 0 2 0 0 0 0
555 499 456 471 691 799 1087 1270 928 543 461 544 443 103 365 592 475 536 764 995 662 668 621 650 803 372 265 33 0 0 0 0 0 0 0 0 0 0 0 0 0 0 0
866 916 831 741 920 1120 1118 1053 1211 1262 1101 666 468 527 561 708 652 539 532 832 942 741 595 577 622 184 370 116 2 0 0 0 0 0 0 0 0 0 0 0 0 0 0
1082 899 906 1127 1545 1629 1560 1541 1545 1632 1545 1247 805 693 751 785 901 898 742 721 866 851 681 581 565 449 432 153 75 16 0 0 0 0 0 0 0 0 0 0 0 0 0
484 1268 1346 1234 1169 1710 2059 2035 1934 1610 1709 1672 1009 737 714 866 1008 951 984 911 836 785 612 668 565 462 426 209 155 40 0 0 0 0 0 0 0 0 0 0 0 0 0
189 113 974 1381 1408 243 36 712 2012 1913 1581 1507 1173 841 714 958 1085 1074 979 995 884 841 722 469 730 705 533 233 145 129 5 0 0 0 0 0 0 0 0 0 0 0 0
320 393 102 201 0 0 0 2 17 27 792 1475 1553 1143 1016 985 942 829 907 889 1099 1073 994 901 824 1041 805 546 105 102 46 0 0 0 0 0 0 0 0 0 0 0 0
307 312 57 1 0 1 1 0 7 0 0 672 1374 1498 1111 614 75 166 539 173 20 0 1 179 182 86 724 894 722 255 140 16 0 0 0 0 0 0 0 0 0 0 0
299 361 466 25 1 0 0 0 0 0 1 128 205 215 499 248 121 90 0 2 0 3 150 10 0 0 48 856 510 624 413 236 3 0 0 0 0 0 0 0 0 0 0
310 99 46 17 0 0 0 0 0 0 0 7 56 170 387 24 0 0 0 0 0 0 53 2 0 0 0 20 353 754 554 347 21 3 0 0 0 0 0 0 0 0 0
0 199 151 6 0 0 0 0 0 3 0 0 0 3 0 22 18 0 0 0 16 59 195 10 1 0 0 0 0 312 616 530 4 0 0 0 0 0 0 0 0 0 0
0 0 153 427 0 0 0 5 8 4 0 0 346 458 254 0 0 2 3 0 0 435 837 601 54 0 0 99 4 17 42 35 2 2 0 0 0 0 0 0 0 0 0
0 0 16 119 130 319 121 25 319 603 699 758 795 662 278 112 233 292 357 1 56 836 1149 1370 1187 742 277 6 1 1 1 11 0 1 1 1 0 0 0 0 0 0 0
0 0 0 0 0 0 0 327 568 570 566 508 217 160 150 133 118 268 228 1 1 7 148 130 50 49 25 1 1 0 1 1 0 0 1 0 0 0 0 0 0 0 0
0 0 0 0 0 0 0 0 30 723 868 839 616 550 543 341 352 300 293 242 111 7 1 1 1 1 1 0 0 1 1 1 1 0 0 0 0 0 0 0 0 0 0
0 0 0 0 0 2 7 16 22 0 82 689 893 581 349 480 258 22 0 13 1 0 31 41 28 1 0 1 0 0 1 1 0 0 0 0 0 0 0 0 0 0 0
0 0 0 0 0 9 0 0 0 0 0 0 0 0 10 61 0 0 1 1 1 1 311 119 56 7 0 0 0 1 0 1 2 0 0 0 0 0 0 0 0 0 0
0 0 0 0 0 0 0 0 0 0 0 0 0 0 0 0 0 0 1 1 1 1 172 233 63 27 9 5 1 1 1 1 1 1 0 0 0 0 0 0 0 0 0
0 0 0 0 0 0 0 0 0 0 0 0 0 0 0 1 0 2 2 1 24 2 4 78 130 33 34 10 3 1 0 0 0 0 0 0 0 0 0 0 0 0 0
3 3 0 0 0 0 0 1 0 63 20 0 4 0 0 1 0 0 0 0 1 1 8 1 15 3 4 0 6 0 0 0 0 0 0 0 0 0 0 0 0 0 0
0 1 3 5 1 0 0 0 0 0 0 1 1 0 0 0 0 0 0 0 0 1 1 0 2 0 0 0 1 0 0 0 0 0 0 0 0 0 0 0 0 0 0
0 0 0 0 2 3 0 0 0 0 0 0 0 0 0 0 0 0 0 0 0 0 0 1 1 0 0 2 10 2 0 0 2 0 0 0 0 0 0 0 0 0 0
10 11 1 0 0 0 1 0 0 0 0 0 0 0 0 0 0 0 0 0 0 0 0 0 0 0 0 0 4 0 2 0 0 0 0 0 0 0 0 0 0 0 0
9 4 12 15 1 0 0 0 0 0 0 0 0 0 8 11 10 0 0 0 2 13 16 0 0 0 1 0 1 4 3 0 0 0 0 0 0 0 0 0 0 0 0
4 0 13 15 2 0 0 0 0 0 0 0 0 0 0 0 0 2 6 9 11 10 25 24 6 1 0 0 0 3 6 0 0 0 0 0 0 0 0 0 0 0 0
0 0 4 4 4 5 1 3 5 0 0 0 0 0 0 0 0 0 5 11 0 0 0 0 0 0 0 0 0 0 0 0 2 1 0 0 0 0 0 0 0 0 0